• In Belarus
  • List of Countries
  • For 7 days
  • Water Temperature
  • Satellite Maps
  • Weather Map
  • Weather Widgets
  • user-avatar
    Login

    Hourly Weather Mainz

    Today, 11 December, Monday

    Time Temperature Precipitation Wind Pressure Humidity
    00:00 +5°C° 0.4 mm 6 mps 728 mmHg 89%
    01:00 +5°C° 0 mm 4 mps 729 mmHg 89%
    02:00 +5°C° 0 mm 3 mps 729 mmHg 91%
    03:00 +5°C° 0 mm 2 mps 729 mmHg 93%
    04:00 +4°C° 0 mm 2 mps 730 mmHg 94%
    05:00 +4°C° 0.4 mm 2 mps 729 mmHg 95%
    06:00 +4°C° 0.4 mm 2 mps 729 mmHg 96%
    07:00 +4°C° 0 mm 2 mps 729 mmHg 97%
    08:00 +4°C° 2.5 mm 3 mps 728 mmHg 96%
    09:00 +4°C° 2.5 mm 3 mps 728 mmHg 96%
    10:00 +4°C° 2.5 mm 4 mps 727 mmHg 96%
    11:00 +4°C° 2.3 mm 4 mps 727 mmHg 94%
    12:00 +5°C° 2.3 mm 4 mps 727 mmHg 93%
    13:00 +5°C° 2.3 mm 4 mps 727 mmHg 91%
    14:00 +5°C° 0.7 mm 3 mps 727 mmHg 92%
    15:00 +5°C° 0.7 mm 3 mps 727 mmHg 93%
    16:00 +5°C° 0.7 mm 3 mps 727 mmHg 93%
    17:00 +5°C° 0.2 mm 3 mps 727 mmHg 92%
    18:00 +5°C° 0.2 mm 4 mps 728 mmHg 91%
    19:00 +5°C° 0.2 mm 4 mps 728 mmHg 90%
    20:00 +5°C° 0.1 mm 5 mps 728 mmHg 87%
    21:00 +5°C° 0.1 mm 5 mps 728 mmHg 84%
    22:00 +6°C° 0.1 mm 5 mps 729 mmHg 81%
    23:00 +4°C° 0 mm 6 mps 729 mmHg 79%

    Tomorrow, 12 December, Tuesday

    Time Temperature Precipitation Wind Pressure Humidity
    00:00 +4°C° 0 mm 7 mps 730 mmHg 78%
    01:00 +3°C° 0 mm 7 mps 730 mmHg 77%
    02:00 +3°C° 0 mm 7 mps 732 mmHg 77%
    03:00 +2°C° 0 mm 8 mps 733 mmHg 77%
    04:00 +1°C° 0 mm 8 mps 735 mmHg 77%
    05:00 +2°C° 0 mm 7 mps 737 mmHg 78%
    06:00 +2°C° 0 mm 7 mps 738 mmHg 78%
    07:00 +2°C° 0 mm 6 mps 740 mmHg 78%
    08:00 +1°C° 0 mm 6 mps 742 mmHg 78%
    09:00 +1°C° 0 mm 6 mps 744 mmHg 77%
    10:00 +1°C° 0 mm 5 mps 745 mmHg 76%
    11:00 +2°C° 0 mm 5 mps 746 mmHg 75%
    12:00 +2°C° 0 mm 5 mps 747 mmHg 74%
    13:00 +3°C° 0 mm 6 mps 748 mmHg 73%
    14:00 +2°C° 0.1 mm 5 mps 748 mmHg 74%
    15:00 +2°C° 0.1 mm 5 mps 749 mmHg 76%
    16:00 +3°C° 0.1 mm 4 mps 750 mmHg 77%
    17:00 +1°C° 0 mm 4 mps 751 mmHg 79%
    18:00 +1°C° 0 mm 4 mps 752 mmHg 81%
    19:00 0°C° 0 mm 4 mps 752 mmHg 83%
    20:00 +1°C° 0 mm 3 mps 753 mmHg 84%
    21:00 +1°C° 0 mm 3 mps 754 mmHg 86%
    22:00 0°C° 0 mm 3 mps 754 mmHg 87%
    23:00 0°C° 0 mm 3 mps 754 mmHg 87%

    Day after tomorrow, 13 December, Wednesday

    Time Temperature Precipitation Wind Pressure Humidity
    00:00 0°C° 0 mm 3 mps 754 mmHg 88%
    01:00 0°C° 0 mm 3 mps 754 mmHg 88%
    02:00 0°C° 0 mm 3 mps 754 mmHg 88%
    03:00 -1°C° 0 mm 4 mps 754 mmHg 88%
    04:00 -1°C° 0 mm 4 mps 753 mmHg 89%
    05:00 -1°C° 0 mm 4 mps 753 mmHg 87%
    06:00 0°C° 0 mm 5 mps 752 mmHg 85%
    07:00 0°C° 0 mm 5 mps 752 mmHg 84%
    08:00 0°C° 0 mm 5 mps 751 mmHg 81%
    09:00 +1°C° 0 mm 6 mps 751 mmHg 79%
    10:00 +1°C° 0 mm 6 mps 750 mmHg 76%
    11:00 +2°C° 0.3 mm 7 mps 749 mmHg 76%
    12:00 +2°C° 0.3 mm 7 mps 748 mmHg 75%
    13:00 +3°C° 0.3 mm 7 mps 748 mmHg 75%
    14:00 +3°C° 0.7 mm 7 mps 747 mmHg 77%
    15:00 +3°C° 0.7 mm 7 mps 746 mmHg 79%
    16:00 +3°C° 0.7 mm 6 mps 746 mmHg 82%
    17:00 +3°C° 0.3 mm 6 mps 745 mmHg 83%
    18:00 +3°C° 0.3 mm 6 mps 745 mmHg 84%
    19:00 +4°C° 0.3 mm 6 mps 744 mmHg 85%
    20:00 +4°C° 0.1 mm 6 mps 744 mmHg 85%
    21:00 +4°C° 0.1 mm 6 mps 743 mmHg 85%
    22:00 +4°C° 0.1 mm 7 mps 742 mmHg 84%
    23:00 +5°C° 0.2 mm 7 mps 741 mmHg 84%

    14 December, Thursday

    Time Temperature Precipitation Wind Pressure Humidity
    00:00 +5°C° 0.2 mm 7 mps 741 mmHg 84%
    01:00 +5°C° 0.2 mm 7 mps 740 mmHg 84%
    02:00 +5°C° 0.4 mm 6 mps 740 mmHg 85%
    03:00 +5°C° 0.4 mm 6 mps 739 mmHg 86%
    04:00 +7°C° 0.4 mm 5 mps 739 mmHg 87%
    05:00 +6°C° 0.1 mm 5 mps 739 mmHg 85%
    06:00 +4°C° 0.1 mm 6 mps 739 mmHg 84%
    07:00 +4°C° 0.1 mm 6 mps 739 mmHg 82%
    08:00 +4°C° 0.6 mm 6 mps 739 mmHg 82%
    09:00 +4°C° 0.6 mm 6 mps 739 mmHg 81%
    10:00 +4°C° 0.6 mm 6 mps 740 mmHg 80%
    11:00 +3°C° 1.9 mm 5 mps 739 mmHg 81%
    12:00 +4°C° 1.9 mm 4 mps 738 mmHg 82%
    13:00 +3°C° 1.9 mm 3 mps 738 mmHg 83%
    14:00 +3°C° 0.8 mm 3 mps 738 mmHg 84%
    15:00 +3°C° 0.8 mm 3 mps 737 mmHg 85%
    16:00 +3°C° 0.8 mm 3 mps 737 mmHg 86%
    17:00 +3°C° 0.5 mm 3 mps 737 mmHg 86%
    18:00 +3°C° 0.5 mm 3 mps 738 mmHg 86%
    19:00 +3°C° 0.5 mm 4 mps 738 mmHg 86%
    20:00 +3°C° 0.1 mm 4 mps 738 mmHg 85%
    21:00 +1°C° 0.1 mm 4 mps 738 mmHg 84%
    22:00 +1°C° 0.1 mm 4 mps 739 mmHg 83%
    23:00 +1°C° 0 mm 4 mps 739 mmHg 83%

    15 December, Friday

    Time Temperature Precipitation Wind Pressure Humidity
    00:00 0°C° 0 mm 4 mps 739 mmHg 84%
    01:00 0°C° 0 mm 4 mps 740 mmHg 85%
    02:00 0°C° 0 mm 4 mps 740 mmHg 85%
    03:00 0°C° 0 mm 4 mps 740 mmHg 86%
    04:00 0°C° 0 mm 4 mps 740 mmHg 87%
    05:00 0°C° 0 mm 4 mps 740 mmHg 87%
    06:00 0°C° 0 mm 4 mps 740 mmHg 88%
    07:00 0°C° 0 mm 4 mps 740 mmHg 88%
    08:00 0°C° 0.1 mm 5 mps 740 mmHg 86%
    09:00 +1°C° 0.1 mm 5 mps 740 mmHg 85%
    10:00 +1°C° 0.1 mm 6 mps 740 mmHg 83%
    11:00 +1°C° 0.1 mm 6 mps 740 mmHg 82%
    12:00 +2°C° 0.1 mm 6 mps 739 mmHg 81%
    13:00 +2°C° 0.1 mm 6 mps 739 mmHg 80%
    14:00 +2°C° 0.3 mm 6 mps 739 mmHg 81%
    15:00 +2°C° 0.3 mm 6 mps 740 mmHg 81%
    16:00 +2°C° 0.3 mm 6 mps 740 mmHg 82%
    17:00 +2°C° 0.2 mm 5 mps 740 mmHg 83%
    18:00 +2°C° 0.2 mm 5 mps 741 mmHg 84%
    19:00 +1°C° 0.2 mm 4 mps 742 mmHg 84%
    20:00 +1°C° 0 mm 4 mps 743 mmHg 84%
    21:00 0°C° 0 mm 4 mps 743 mmHg 85%
    22:00 +1°C° 0 mm 3 mps 744 mmHg 85%
    23:00 +1°C° 0 mm 3 mps 745 mmHg 85%

    16 December, Saturday

    Time Temperature Precipitation Wind Pressure Humidity
    00:00 0°C° 0 mm 4 mps 745 mmHg 86%
    01:00 0°C° 0 mm 4 mps 746 mmHg 87%
    02:00 0°C° 0 mm 4 mps 746 mmHg 87%
    03:00 0°C° 0 mm 4 mps 747 mmHg 88%
    04:00 0°C° 0 mm 4 mps 747 mmHg 88%
    05:00 0°C° 0.2 mm 4 mps 748 mmHg 87%
    06:00 0°C° 0.2 mm 4 mps 748 mmHg 86%
    07:00 0°C° 0.2 mm 4 mps 749 mmHg 84%
    08:00 0°C° 0 mm 4 mps 749 mmHg 84%
    09:00 0°C° 0 mm 5 mps 750 mmHg 83%
    10:00 0°C° 0 mm 5 mps 750 mmHg 83%
    11:00 0°C° 0.3 mm 5 mps 751 mmHg 83%
    12:00 0°C° 0.3 mm 5 mps 751 mmHg 82%
    13:00 +1°C° 0.3 mm 5 mps 751 mmHg 82%
    14:00 +1°C° 0.1 mm 4 mps 751 mmHg 81%
    15:00 +1°C° 0.1 mm 4 mps 752 mmHg 80%
    16:00 +1°C° 0.1 mm 4 mps 752 mmHg 80%
    17:00 +1°C° 0 mm 3 mps 752 mmHg 81%
    18:00 0°C° 0 mm 3 mps 752 mmHg 83%
    19:00 0°C° 0 mm 3 mps 753 mmHg 84%
    20:00 0°C° 0 mm 3 mps 753 mmHg 85%
    21:00 -1°C° 0 mm 3 mps 753 mmHg 86%
    22:00 -1°C° 0 mm 2 mps 754 mmHg 87%
    23:00 -1°C° 0 mm 2 mps 754 mmHg 88%
    Show more